| time (UTC) | temp F | wind direction | speed MPH | gust MPH | rain 1hr in | rain 24hr in | rain mn in | humidity % | barometer mb |
| 20260508121539 | 41 | 322 | 2.0 | 7.0 | 0.00 | 0.00 | 0.00 | 75 | 1007.6 |
| 20260508120036 | 40 | 231 | 0.0 | 5.0 | 0.00 | 0.00 | 0.00 | 78 | 1007.5 |
| 20260508114536 | 40 | 308 | 0.0 | 5.0 | 0.00 | 0.00 | 0.00 | 78 | 1007.5 |
| 20260508113046 | 39 | 253 | 0.0 | 4.0 | 0.00 | 0.00 | 0.00 | 81 | 1007.3 |
| 20260508111528 | 39 | 170 | 0.0 | 5.0 | 0.00 | 0.00 | 0.00 | 83 | 1007.1 |
| 20260508110027 | 38 | 345 | 0.0 | 4.0 | 0.00 | 0.00 | 0.00 | 84 | 1007.0 |
| 20260508104525 | 38 | 304 | 0.0 | 0.0 | 0.00 | 0.00 | 0.00 | 84 | 1006.8 |
| 20260508103032 | 38 | 295 | 0.0 | 4.0 | 0.00 | 0.00 | 0.00 | 85 | 1006.6 |
| 20260508101529 | 37 | 297 | 0.0 | 4.0 | 0.00 | 0.00 | 0.00 | 85 | 1006.5 |
| 20260508100021 | 37 | 147 | 0.0 | 1.0 | 0.00 | 0.00 | 0.00 | 86 | 1006.5 |
| 20260508094520 | 37 | 311 | 0.0 | 1.0 | 0.00 | 0.00 | 0.00 | 84 | 1006.3 |
| 20260508093020 | 37 | 269 | 0.0 | 0.0 | 0.00 | 0.00 | 0.00 | 84 | 1006.1 |
| 20260508091532 | 37 | 296 | 0.0 | 0.0 | 0.00 | 0.00 | 0.00 | 85 | 1006.1 |
| 20260508090030 | 37 | 297 | 0.0 | 0.0 | 0.00 | 0.00 | 0.00 | 84 | 1005.9 |
| 20260508084518 | 37 | 297 | 0.0 | 0.0 | 0.00 | 0.00 | 0.00 | 84 | 1006.0 |
| 20260508083018 | 37 | 297 | 0.0 | 0.0 | 0.00 | 0.00 | 0.00 | 85 | 1005.9 |
| 20260508081518 | 37 | 359 | 0.0 | 0.0 | 0.00 | 0.00 | 0.00 | 85 | 1006.0 |
| 20260508080024 | 37 | 272 | 0.0 | 4.0 | 0.00 | 0.00 | 0.00 | 86 | 1005.8 |
| 20260508074526 | 36 | 343 | 0.0 | 0.0 | 0.00 | 0.00 | 0.00 | 87 | 1005.8 |
| 20260508073015 | 36 | 185 | 0.0 | 6.0 | 0.00 | 0.00 | 0.00 | 87 | 1005.7 |
| 20260508071523 | 36 | 217 | 0.0 | 5.0 | 0.00 | 0.00 | 0.00 | 87 | 1005.6 |
| 20260508070014 | 36 | 229 | 0.0 | 1.0 | 0.00 | 0.00 | 0.00 | 87 | 1005.8 |
| 20260508064516 | 35 | 359 | 0.0 | 4.0 | 0.00 | 0.00 | 0.00 | 88 | 1005.7 |
| 20260508063013 | 35 | 359 | 0.0 | 0.0 | 0.00 | 0.00 | 0.00 | 87 | 1005.8 |
| 20260508061511 | 35 | 359 | 0.0 | 0.0 | 0.00 | 0.00 | 0.00 | 86 | 1005.8 |
| 20260508060011 | 35 | 295 | 0.0 | 0.0 | 0.00 | 0.00 | 0.00 | 85 | 1006.0 |
| 20260508054509 | 36 | 294 | 0.0 | 0.0 | 0.00 | 0.00 | 0.00 | 85 | 1006.1 |
| 20260508053005 | 36 | 359 | 0.0 | 0.0 | 0.00 | 0.00 | 0.00 | 84 | 1006.1 |
| 20260508051503 | 37 | 275 | 0.0 | 2.0 | 0.00 | 0.00 | 0.00 | 85 | 1006.2 |
| 20260508050001 | 37 | 275 | 0.0 | 1.0 | 0.00 | 0.00 | 0.00 | 84 | 1006.2 |
| 20260508044605 | 37 | 246 | 0.0 | 2.0 | 0.00 | 0.00 | 0.00 | 83 | 1006.1 |
| 20260508043107 | 38 | 187 | 0.0 | 5.0 | 0.00 | 0.00 | 0.00 | 83 | 1006.1 |
| 20260508041552 | 38 | 156 | 0.0 | 0.0 | 0.00 | 0.00 | 0.00 | 83 | 1006.1 |
| 20260508040051 | 38 | 76 | 0.0 | 0.0 | 0.00 | 0.00 | 0.00 | 83 | 1006.2 |
| 20260508034550 | 38 | 335 | 0.0 | 0.0 | 0.00 | 0.00 | 0.00 | 84 | 1006.2 |
| 20260508033049 | 38 | 334 | 0.0 | 0.0 | 0.00 | 0.00 | 0.00 | 83 | 1006.3 |
| 20260508031549 | 37 | 334 | 0.0 | 0.0 | 0.00 | 0.00 | 0.00 | 83 | 1006.3 |
| 20260508030048 | 37 | 335 | 0.0 | 0.0 | 0.00 | 0.00 | 0.00 | 83 | 1006.3 |
| 20260508024548 | 37 | 334 | 0.0 | 0.0 | 0.00 | 0.00 | 0.00 | 84 | 1006.2 |
| 20260508023048 | 37 | 334 | 0.0 | 0.0 | 0.00 | 0.00 | 0.00 | 82 | 1006.3 |
| 20260508021550 | 37 | 335 | 0.0 | 0.0 | 0.00 | 0.00 | 0.00 | 82 | 1006.3 |
| 20260508020046 | 37 | 334 | 0.0 | 0.0 | 0.00 | 0.00 | 0.00 | 79 | 1006.2 |
| 20260508014543 | 38 | 359 | 0.0 | 0.0 | 0.00 | 0.00 | 0.00 | 78 | 1006.2 |
| 20260508013043 | 39 | 335 | 0.0 | 0.0 | 0.00 | 0.00 | 0.00 | 75 | 1006.1 |
| 20260508011542 | 40 | 334 | 0.0 | 0.0 | 0.00 | 0.00 | 0.00 | 74 | 1006.0 |
| 20260508010040 | 41 | 334 | 0.0 | 0.0 | 0.00 | 0.00 | 0.00 | 71 | 1006.0 |
| 20260508004542 | 42 | 334 | 0.0 | 0.0 | 0.00 | 0.00 | 0.00 | 65 | 1005.8 |
| 20260508003040 | 43 | 335 | 0.0 | 0.0 | 0.00 | 0.00 | 0.00 | 64 | 1005.6 |
| 20260508001540 | 44 | 335 | 0.0 | 0.0 | 0.00 | 0.00 | 0.00 | 66 | 1005.5 |
| 20260508000038 | 45 | 359 | 0.0 | 0.0 | 0.00 | 0.00 | 0.00 | 66 | 1005.4 |
| 20260507234538 | 46 | 316 | 0.0 | 4.0 | 0.00 | 0.00 | 0.00 | 63 | 1005.4 |
| 20260507233040 | 47 | 300 | 0.0 | 5.0 | 0.00 | 0.00 | 0.00 | 60 | 1005.3 |
| 20260507231537 | 48 | 302 | 2.0 | 10.0 | 0.00 | 0.00 | 0.00 | 50 | 1005.3 |
| 20260507230037 | 48 | 359 | 2.0 | 13.0 | 0.00 | 0.00 | 0.00 | 47 | 1005.2 |
| 20260507224537 | 49 | 318 | 4.0 | 13.0 | 0.00 | 0.00 | 0.00 | 46 | 1005.2 |
| 20260507223036 | 49 | 328 | 5.0 | 12.0 | 0.00 | 0.00 | 0.00 | 45 | 1005.2 |
| 20260507221536 | 49 | 328 | 3.0 | 14.0 | 0.00 | 0.00 | 0.00 | 44 | 1005.3 |
| 20260507220036 | 49 | 305 | 4.0 | 14.0 | 0.00 | 0.01 | 0.00 | 48 | 1005.3 |
| 20260507214543 | 49 | 280 | 4.0 | 14.0 | 0.00 | 0.01 | 0.00 | 47 | 1005.2 |
| 20260507213035 | 49 | 312 | 6.0 | 20.0 | 0.00 | 0.01 | 0.00 | 44 | 1005.2 |
| 20260507211533 | 49 | 359 | 6.0 | 15.0 | 0.00 | 0.01 | 0.00 | 46 | 1005.1 |
| 20260507210048 | 50 | 316 | 10.0 | 24.0 | 0.00 | 0.01 | 0.00 | 42 | 1005.0 |
| 20260507204532 | 49 | 332 | 9.0 | 14.0 | 0.00 | 0.01 | 0.00 | 47 | 1005.0 |
| 20260507203035 | 49 | 253 | 8.0 | 26.0 | 0.00 | 0.01 | 0.00 | 46 | 1005.1 |
| 20260507201530 | 49 | 308 | 11.0 | 18.0 | 0.00 | 0.01 | 0.00 | 45 | 1005.1 |
| 20260507200035 | 49 | 315 | 7.0 | 13.0 | 0.00 | 0.02 | 0.00 | 46 | 1005.2 |
| 20260507194547 | 49 | 359 | 0.0 | 15.0 | 0.00 | 0.02 | 0.00 | 49 | 1005.3 |
| 20260507193033 | 49 | 305 | 7.0 | 13.0 | 0.00 | 0.02 | 0.00 | 44 | 1005.4 |
| 20260507191528 | 50 | 280 | 7.0 | 13.0 | 0.00 | 0.02 | 0.00 | 43 | 1005.4 |
| 20260507190028 | 51 | 264 | 9.0 | 22.0 | 0.00 | 0.03 | 0.00 | 42 | 1005.6 |
| 20260507184530 | 50 | 359 | 7.0 | 23.0 | 0.00 | 0.03 | 0.00 | 43 | 1005.6 |
| 20260507183034 | 50 | 315 | 11.0 | 25.0 | 0.00 | 0.03 | 0.00 | 45 | 1005.4 |
| 20260507181526 | 50 | 323 | 7.0 | 22.0 | 0.00 | 0.03 | 0.00 | 45 | 1005.1 |
| 20260507180031 | 50 | 316 | 13.0 | 21.0 | 0.00 | 0.05 | 0.00 | 43 | 1005.4 |
| 20260507174535 | 50 | 359 | 11.0 | 19.0 | 0.00 | 0.05 | 0.00 | 45 | 1005.1 |
| 20260507173034 | 49 | 310 | 12.0 | 24.0 | 0.00 | 0.05 | 0.00 | 46 | 1005.4 |
| 20260507171522 | 49 | 359 | 14.0 | 24.0 | 0.00 | 0.05 | 0.00 | 45 | 1005.4 |
| 20260507170022 | 49 | 321 | 17.0 | 28.0 | 0.00 | 0.15 | 0.00 | 47 | 1005.3 |
| 20260507164521 | 50 | 324 | 14.0 | 23.0 | 0.00 | 0.15 | 0.00 | 48 | 1005.6 |
| 20260507163019 | 51 | 299 | 3.0 | 18.0 | 0.00 | 0.15 | 0.00 | 53 | 1005.5 |
| 20260507161515 | 49 | 359 | 5.0 | 25.0 | 0.00 | 0.15 | 0.00 | 53 | 1005.7 |
| 20260507160020 | 48 | 295 | 7.0 | 19.0 | 0.00 | 0.24 | 0.00 | 51 | 1005.7 |
| 20260507154527 | 49 | 312 | 10.0 | 24.0 | 0.00 | 0.24 | 0.00 | 51 | 1005.9 |
| 20260507153028 | 48 | 282 | 2.0 | 12.0 | 0.00 | 0.24 | 0.00 | 59 | 1006.0 |
| 20260507151512 | 48 | 306 | 8.0 | 21.0 | 0.00 | 0.24 | 0.00 | 52 | 1006.2 |
| 20260507150011 | 49 | 245 | 3.0 | 14.0 | 0.00 | 0.33 | 0.00 | 57 | 1006.2 |
| 20260507144507 | 48 | 77 | 1.0 | 23.0 | 0.00 | 0.33 | 0.00 | 57 | 1006.1 |
| 20260507143005 | 46 | 312 | 9.0 | 25.0 | 0.00 | 0.33 | 0.00 | 57 | 1006.1 |
| 20260507141501 | 46 | 287 | 4.0 | 21.0 | 0.00 | 0.33 | 0.00 | 66 | 1006.0 |
| 20260507140058 | 45 | 318 | 7.0 | 14.0 | 0.00 | 0.40 | 0.00 | 63 | 1006.2 |
| 20260507134559 | 44 | 214 | 6.0 | 19.0 | 0.00 | 0.40 | 0.00 | 66 | 1006.4 |
| 20260507133057 | 44 | 333 | 11.0 | 19.0 | 0.00 | 0.40 | 0.00 | 66 | 1006.4 |
| 20260507131610 | 43 | 318 | 2.0 | 16.0 | 0.00 | 0.40 | 0.00 | 70 | 1006.4 |
| 20260507130048 | 43 | 359 | 0.0 | 18.0 | 0.00 | 0.46 | 0.00 | 78 | 1006.4 |
| 20260507124545 | 42 | 316 | 2.0 | 14.0 | 0.00 | 0.46 | 0.00 | 79 | 1006.1 |
| 20260507123044 | 41 | 282 | 7.0 | 20.0 | 0.00 | 0.46 | 0.00 | 79 | 1006.1 |